EPRZEPKK

Guest
Details From EPRZ - JASIONKA
To EPKK - BALICE
Flight Number -
Tags generated
Created
Modified
Stats Distance 87 nm / 161 km
Max Altitude 1,400 ft / 427 m
Waypoints 3
Social Downloads 4
Likes 0
Share VATSIM

Download

Looking for another format? Having issues loading an existing format? Contact us
Advertisement - Login to hide

Notes

Basic altitude profile: - Ascent Rate: 2500ft/min - Ascent Speed: 250kts - Cruise Altitude: 35000ft - Cruise Speed: 420kts - Descent Rate: 1500ft/min - Descent Speed: 250kts Options: - Use NATs: yes - Use PACOTS: yes - Use low airways: yes - Use high airways: yes

Route

EPRZ VAVEL EPKK

ID Type Via Altitude Latitude Longitude Leg Dist Tot Dist Heading (true) Name
O EPRZ APT - 0 ft / 0 m 50.10761˚ 22.03610˚ - 0 nm - JASIONKA
VAVEL FIX - 1,400 ft / 427 m 50.06639˚ 19.96194˚ 79 nm 79 nm 269° / 267° -
O EPKK APT - 0 ft / 0 m 50.07782˚ 19.78550˚ 6 nm 86 nm 276° / 276° BALICE

Altitude Profile

Advertisement - Login to hide

EPRZ

Details ICAO EPRZ (RZE)
Name JASIONKA
Region Poland
Timezone Europe/Warsaw (UTC+2.0)
Stats Elevation 675 ft / 206 m (AMSL)
Location 50.107614° 22.036096°
Runways 2
Magnetic Variation 5.777° E

METAR

EPRZ 201830Z 02005KT CAVOK 15/07 Q1023

Decode

TAF

TAF EPRZ 201730Z 2018/2118 05008KT CAVOK PROB30 TEMPO 2110/2116 05015G25KT

Decode

Departure Runways

ID Width Length Bearing (true) Bearing (mag) Surface Threshold Offset Overrun Length
08 1,050 ft / 320 m 2,709 ft / 826 m 80.74° 74.96° Grass 0 ft / 0 m 0 ft / 0 m
09 148 ft / 45 m 10,469 ft / 3,191 m 91.16° 85.38° Concrete 0 ft / 0 m 0 ft / 0 m
26 1,050 ft / 320 m 2,709 ft / 826 m 260.74° 254.96° Grass 0 ft / 0 m 0 ft / 0 m
27 148 ft / 45 m 10,469 ft / 3,191 m 271.20° 265.42° Concrete 2,297 ft / 700 m 0 ft / 0 m

EPKK

Details ICAO EPKK (KRK)
Name BALICE
Region Poland
Timezone Europe/Warsaw (UTC+2.0)
Stats Elevation 791 ft / 241 m (AMSL)
Location 50.077821° 19.785503°
Runways 1
Magnetic Variation 5.255° E

METAR

EPKK 201830Z 02004KT 330V050 9999 FEW068 17/06 Q1022

Decode

TAF

TAF EPKK 201730Z 2018/2118 05008KT CAVOK PROB30 TEMPO 2110/2116 05015G25KT

Decode

Destination Runways

ID Width Length Bearing (true) Bearing (mag) Surface Threshold Offset Overrun Length
07 197 ft / 60 m 8,343 ft / 2,543 m 77.75° 72.50° Concrete 0 ft / 0 m 0 ft / 0 m
25 197 ft / 60 m 8,343 ft / 2,543 m 257.77° 252.52° Concrete 784 ft / 239 m 0 ft / 0 m

Approach Navaids

Runway Type Ident Frequency Range Bearing (true) Bearing (mag) Slope Elevation
25 Localiser KRW 110.30 MHz 18 nm / 33 km 257.73° 252.48° - 791 ft / 241 m (AMSL)
25 Glidescope KRW 110.30 MHz 10 nm / 19 km 257.76° 252.51° 3.00° 791 ft / 241 m (AMSL)
25 DME KRW 110.30 MHz 18 nm / 33 km - - - 827 ft / 252 m (AMSL)

Popular Alternatives